DW9924 Weather Reports


Display with metric or nautical units.
time (UTC)temp
F
wind
direction
speed
MPH
gust
MPH
rain 1hr
in
rain 24hr
in
rain mn
in
humidity
%
barometer
mb
20240624041906 68 348 0.0 0.0 0.00 0.50 0.01 78 1010.4
20240624041406 68 344 0.0 0.0 0.00 0.50 0.01 78 1010.4
20240624040906 68 341 0.0 0.0 0.00 0.50 0.01 77 1010.5
20240624040406 68 342 0.0 1.0 0.00 0.50 0.01 77 1010.5
20240624034906 68 10 0.0 3.0 0.00 0.50 0.01 78 1010.7
20240624033907 67 321 0.0 2.0 0.00 0.50 0.01 79 1010.7
20240624033406 67 325 0.0 3.0 0.00 0.50 0.01 79 1010.8
20240624031906 67 111 0.0 0.0 0.00 0.50 0.01 79 1010.9
20240624031407 68 353 0.0 0.0 0.00 0.50 0.01 77 1010.8
20240624030906 68 66 0.0 3.0 0.00 0.50 0.01 78 1010.7
20240624030406 68 46 0.0 6.0 0.00 0.50 0.01 78 1010.7
20240624024906 67 28 1.0 3.0 0.01 0.50 0.01 80 1010.5
20240624024406 67 295 2.0 6.0 0.01 0.50 0.01 80 1010.2
20240624023906 67 355 2.0 5.0 0.01 0.50 0.01 78 1010.1
20240624023406 67 234 1.0 6.0 0.01 0.50 0.01 78 1010.4
20240624021907 68 305 1.0 9.0 0.01 0.54 0.01 75 1010.8
20240624021406 69 72 1.0 3.0 0.01 0.55 0.01 74 1011.0
20240624020406 70 259 2.0 12.0 0.01 0.81 0.01 72 1011.1
20240624014906 69 190 2.0 7.0 0.00 0.99 0.00 73 1011.2
20240624013907 70 179 1.0 6.0 0.00 1.02 0.00 73 1011.1
20240624011406 71 112 1.0 6.0 0.00 1.02 0.00 69 1011.2
20240624010906 71 0 1.0 6.0 0.00 1.02 0.00 69 1011.3
20240624010406 71 176 1.0 7.0 0.00 1.02 0.00 69 1011.3
20240624004906 72 163 1.0 3.0 0.00 1.02 0.00 68 1011.6
20240624004406 72 262 0.0 7.0 0.00 1.02 0.00 68 1011.5
20240624003906 71 132 1.0 6.0 0.00 1.02 0.00 68 1011.6
20240624003405 71 197 2.0 10.0 0.00 1.02 0.00 69 1011.5
20240624001906 71 219 2.0 5.0 0.00 1.02 0.00 68 1011.5
20240624001406 71 232 0.0 3.0 0.00 1.02 0.00 68 1011.6
20240624000905 72 224 0.0 3.0 0.00 1.02 0.00 67 1011.7
20240624000406 72 194 1.0 10.0 0.00 1.02 0.00 67 1011.8
20240623234906 71 144 1.0 6.0 0.00 1.02 0.00 67 1011.6
20240623234406 71 185 3.0 7.0 0.00 1.02 0.00 67 1011.6
20240623233906 71 265 2.0 9.0 0.00 1.02 0.00 66 1011.5
20240623233407 71 180 0.0 9.0 0.00 1.02 0.00 67 1011.6
20240623231906 71 157 1.0 7.0 0.00 1.02 0.00 66 1011.6
20240623231405 71 228 1.0 7.0 0.00 1.02 0.00 66 1011.6
20240623230906 71 145 1.0 3.0 0.00 1.02 0.00 66 1011.6
20240623230406 71 257 1.0 8.0 0.00 1.02 0.00 67 1011.6
20240623224906 72 333 2.0 9.0 0.00 1.02 0.00 65 1011.6
20240623224406 71 222 2.0 7.0 0.00 1.02 0.00 65 1011.6
20240623223905 71 203 0.0 10.0 0.00 1.03 0.00 65 1011.7
20240623223405 71 195 1.0 7.0 0.00 1.03 0.00 65 1011.6
20240623221906 71 149 1.0 5.0 0.00 1.05 0.00 65 1011.5
20240623221406 71 92 1.0 6.0 0.00 1.05 0.00 64 1011.5
20240623220906 71 117 2.0 8.0 0.00 1.06 0.00 64 1011.6
20240623220406 71 199 1.0 7.0 0.00 1.06 0.00 65 1011.8
20240623214906 71 162 1.0 3.0 0.00 1.06 1.06 65 1011.6
20240623214406 71 167 2.0 5.0 0.00 1.06 1.06 66 1011.4
20240623213906 71 233 1.0 9.0 0.00 1.06 1.06 66 1011.6
20240623213406 71 182 1.0 8.0 0.00 1.06 1.06 67 1011.6
20240623211905 71 323 2.0 5.0 0.00 1.06 1.06 67 1011.5
20240623211405 71 270 0.0 3.0 0.00 1.06 1.06 67 1011.6
20240623210906 71 232 2.0 8.0 0.00 1.06 1.06 67 1011.5
20240623210406 71 199 0.0 8.0 0.00 1.06 1.06 67 1011.5
20240623204405 70 88 1.0 9.0 0.00 1.06 1.06 68 1011.6
20240623203906 70 160 1.0 3.0 0.00 1.06 1.06 68 1011.6
20240623203405 70 306 1.0 5.0 0.00 1.06 1.06 68 1011.5
20240623201905 70 53 1.0 3.0 0.00 1.06 1.06 69 1011.5
20240623201406 69 329 1.0 5.0 0.00 1.06 1.06 70 1011.4
20240623200905 69 210 0.0 3.0 0.00 1.06 1.06 70 1011.3
20240623200406 69 200 1.0 6.0 0.00 1.06 1.06 70 1011.3
20240623194906 69 169 1.0 5.0 0.00 1.06 1.06 71 1011.4
20240623194405 69 336 0.0 3.0 0.00 1.06 1.06 71 1011.3
20240623193405 69 225 1.0 8.0 0.00 1.06 1.06 70 1011.3
20240623191905 69 246 0.0 3.0 0.00 1.06 1.06 71 1011.2
20240623191405 69 231 2.0 5.0 0.00 1.06 1.06 72 1011.1
20240623190906 69 282 1.0 3.0 0.00 1.06 1.06 72 1011.0
20240623190405 69 223 0.0 3.0 0.00 1.06 1.06 73 1010.9
20240623184405 69 214 2.0 8.0 0.00 1.06 1.06 74 1010.7
20240623183905 69 146 1.0 3.0 0.00 1.06 1.06 75 1010.8
20240623183405 69 35 0.0 5.0 0.00 1.06 1.06 75 1010.8
20240623181905 69 239 1.0 5.0 0.00 1.06 1.06 77 1010.9
20240623181405 68 244 1.0 3.0 0.00 1.06 1.06 79 1011.0
20240623180905 68 226 0.0 0.0 0.00 1.06 1.06 78 1010.9
20240623180406 69 228 1.0 6.0 0.00 1.06 1.06 78 1010.9
20240623174905 69 238 0.0 0.0 0.00 1.06 1.06 80 1011.0
20240623174405 69 238 0.0 0.0 0.00 1.06 1.06 80 1011.0
20240623171405 69 238 0.0 0.0 0.00 1.06 1.06 80 1010.8
20240623170905 69 238 0.0 0.0 0.00 1.06 1.06 81 1010.8
20240623170405 69 238 0.0 0.0 0.00 1.06 1.06 82 1010.8
20240623164905 69 238 0.0 0.0 0.00 1.06 1.06 82 1010.9
20240623164405 69 238 0.0 0.0 0.00 1.06 1.06 81 1010.9
20240623163905 69 238 0.0 0.0 0.00 1.06 1.06 82 1010.9
20240623163405 69 238 0.0 0.0 0.00 1.06 1.06 82 1010.9
20240623161905 69 238 0.0 0.0 0.00 1.06 1.06 83 1010.8
20240623161405 69 238 0.0 0.0 0.00 1.06 1.06 83 1010.8
20240623160905 69 238 0.0 0.0 0.00 1.06 1.06 85 1010.8
20240623160405 69 238 0.0 0.0 0.00 1.06 1.06 84 1010.8
20240623154905 69 238 0.0 0.0 0.00 1.06 1.06 84 1010.9
20240623153905 70 238 0.0 0.0 0.00 1.06 1.06 83 1011.0
20240623153405 70 238 0.0 1.0 0.00 1.06 1.06 84 1011.0
20240623151905 69 238 0.0 0.0 0.00 1.06 1.06 87 1011.3
20240623151405 68 238 0.0 0.0 0.00 1.06 1.06 86 1011.3
20240623150905 69 238 0.0 0.0 0.00 1.06 1.06 88 1011.3
20240623144904 68 238 0.0 0.0 0.05 1.06 1.06 88 1011.4
20240623144405 68 238 0.0 0.0 0.06 1.06 1.06 88 1011.4
20240623143905 68 238 0.0 0.0 0.06 1.06 1.06 88 1011.5
20240623143405 68 238 0.0 0.0 0.06 1.06 1.06 88 1011.5
20240623141904 68 238 0.0 0.0 0.06 1.06 1.06 88 1011.7
20240623141406 68 238 0.0 0.0 0.06 1.06 1.06 87 1011.6
20240623140905 68 238 0.0 0.0 0.06 1.06 1.06 87 1011.7
20240623140405 68 238 0.0 0.0 0.06 1.05 1.05 86 1011.8
20240623134405 70 238 0.0 0.0 0.01 1.00 1.00 85 1011.9
20240623133905 70 238 0.0 0.0 0.01 1.00 1.00 83 1011.9
20240623133405 71 238 0.0 3.0 0.00 0.99 0.99 82 1011.9
20240623131905 71 238 0.0 2.0 0.00 0.99 0.99 78 1011.8
20240623131404 72 239 0.0 2.0 0.00 0.99 0.99 77 1011.8
20240623130905 72 240 1.0 3.0 0.00 0.99 0.99 78 1011.7
20240623130404 72 246 0.0 3.0 0.00 0.99 0.99 76 1011.5
20240623124904 74 150 0.0 3.0 0.00 0.99 0.99 76 1011.3
20240623124404 74 183 0.0 3.0 0.00 0.99 0.99 77 1011.4
20240623123905 74 151 0.0 2.0 0.00 0.99 0.99 78 1011.3
20240623123405 74 149 0.0 3.0 0.00 0.99 0.99 78 1011.3
20240623121904 72 235 0.0 1.0 0.00 0.99 0.99 81 1011.3
20240623121405 71 141 0.0 1.0 0.00 0.99 0.99 80 1011.3
20240623120904 72 105 1.0 3.0 0.00 0.99 0.99 79 1011.2
20240623120404 72 202 0.0 3.0 0.00 0.99 0.99 80 1011.1
20240623114905 74 138 1.0 5.0 0.00 0.99 0.99 77 1011.0
20240623114404 75 211 0.0 2.0 0.00 0.99 0.99 75 1011.1
20240623113405 72 233 1.0 6.0 0.00 0.99 0.99 75 1011.0
20240623111904 74 248 0.0 3.0 0.00 0.99 0.99 75 1011.0
20240623110905 73 235 1.0 5.0 0.00 0.99 0.99 76 1011.0
20240623110404 72 160 0.0 2.0 0.00 0.99 0.99 78 1011.0
20240623104905 71 160 0.0 0.0 0.00 0.99 0.99 77 1010.9
20240623104405 71 160 0.0 1.0 0.00 0.99 0.99 78 1010.9
20240623103404 70 181 0.0 3.0 0.00 0.99 0.99 77 1010.9
20240623101904 70 132 0.0 0.0 0.00 0.99 0.99 78 1010.8
20240623101405 70 132 0.0 0.0 0.00 0.99 0.99 78 1010.7
20240623100904 70 132 0.0 0.0 0.00 0.99 0.99 81 1010.7
20240623100404 69 132 0.0 2.0 0.00 0.99 0.99 81 1010.6
20240623094904 68 129 0.0 1.0 0.00 0.99 0.99 82 1010.4
20240623094404 68 128 0.0 2.0 0.00 0.99 0.99 81 1010.3
20240623093904 68 42 0.0 1.0 0.00 0.99 0.99 81 1010.3
20240623093404 69 25 0.0 1.0 0.00 0.99 0.99 83 1010.1
20240623091904 68 115 0.0 0.0 0.00 0.99 0.99 83 1010.0
20240623091404 68 115 0.0 1.0 0.00 0.99 0.99 82 1009.9
20240623090904 68 115 0.0 3.0 0.01 0.99 0.99 81 1009.8
20240623084404 66 75 0.0 2.0 0.01 0.99 0.99 85 1009.7
20240623083904 66 72 0.0 8.0 0.02 0.99 0.99 85 1009.7
20240623083405 65 70 0.0 3.0 0.02 0.99 0.99 86 1009.6
20240623081904 65 84 0.0 8.0 0.02 0.99 0.99 86 1009.4
20240623080904 64 12 0.0 6.0 0.02 0.98 0.98 87 1009.4
20240623080404 64 0 2.0 9.0 0.02 0.98 0.98 87 1009.5
20240623074904 64 16 1.0 7.0 0.18 0.98 0.98 86 1009.3
20240623074404 64 48 0.0 5.0 0.22 0.98 0.98 86 1009.2
20240623073904 64 14 2.0 6.0 0.31 0.98 0.98 87 1009.2
20240623073404 64 0 0.0 7.0 0.31 0.97 0.97 86 1009.3
20240623071904 64 12 3.0 8.0 0.31 0.97 0.97 86 1009.0
20240623071404 64 352 1.0 7.0 0.31 0.97 0.97 86 1008.9
20240623070904 64 28 0.0 6.0 0.34 0.97 0.97 86 1008.8
20240623070404 63 73 2.0 12.0 0.40 0.97 0.97 86 1008.9
20240623064904 64 29 0.0 1.0 0.24 0.80 0.80 85 1009.0
20240623061907 65 20 1.0 6.0 0.09 0.66 0.66 82 1008.5
20240623061406 65 0 1.0 6.0 0.09 0.65 0.65 81 1008.5
20240623060906 66 25 1.0 5.0 0.06 0.63 0.63 79 1008.5
20240623060407 66 98 0.0 1.0 0.00 0.57 0.57 78 1008.3
20240623054907 67 125 0.0 1.0 0.00 0.57 0.57 74 1007.8
20240623054406 67 120 0.0 1.0 0.00 0.57 0.57 74 1007.7
20240623053906 67 77 0.0 0.0 0.00 0.57 0.57 74 1007.7
20240623051407 66 69 0.0 3.0 0.00 0.57 0.57 74 1007.8
20240623050907 66 51 0.0 0.0 0.00 0.57 0.57 75 1007.8
20240623044906 65 27 1.0 6.0 0.00 0.57 0.57 78 1007.8
20240623044407 65 76 0.0 3.0 0.00 0.57 0.57 80 1007.7
20240623043906 64 325 0.0 1.0 0.00 0.57 0.57 82 1007.7
20240623043406 63 28 0.0 0.0 0.00 0.57 0.57 82 1007.7